This is the latest recevied weather packets stored in our database for station/object YO8RBY-1. If no packets are shown the sender has not sent any weather packets the latest 1 day(s).
| Time | Temp. | Humidity | Pressure | Rain* | Wind** | Luminosity | Snow |
|---|---|---|---|---|---|---|---|
| 1778101138 | 28.89° C | 30% | 971 hPa | - | - | 0 W/m² | - |
| 1778088371 | 30° C | 28% | 969 hPa | - | - | 0 W/m² | - |
| 1778086547 | 30° C | 27% | 969 hPa | - | - | 0 W/m² | - |
| 1778084723 | 30° C | 26% | 969 hPa | - | - | 0 W/m² | - |
| 1778082899 | 30° C | 28% | 969 hPa | - | - | 0 W/m² | - |
| 1778081075 | 30° C | 28% | 969 hPa | - | - | 0 W/m² | - |
| 1778068308 | 29.44° C | 32% | 969 hPa | - | - | 0 W/m² | - |
| 1778066484 | 29.44° C | 32% | 970 hPa | - | - | 0 W/m² | - |
| 1778055498 | 28.89° C | 30% | 970 hPa | - | - | 0 W/m² | - |
| 1778053674 | 28.33° C | 30% | 970 hPa | - | - | 0 W/m² | - |
| 1778051850 | 28.33° C | 30% | 970 hPa | - | - | 0 W/m² | - |
| 1778050026 | 28.33° C | 30% | 970 hPa | - | - | 0 W/m² | - |
| 1778048202 | 28.33° C | 31% | 970 hPa | - | - | 0 W/m² | - |
| 1778046378 | 27.78° C | 31% | 970 hPa | - | - | 0 W/m² | - |
| 1778044554 | 27.78° C | 32% | 970 hPa | - | - | 0 W/m² | - |
| 1778042730 | 27.22° C | 32% | 970 hPa | - | - | 0 W/m² | - |
| 1778039082 | 27.22° C | 32% | 970 hPa | - | - | 0 W/m² | - |
| 1778035435 | 27.22° C | 32% | 970 hPa | - | - | 0 W/m² | - |
| 1778033611 | 27.22° C | 32% | 970 hPa | - | - | 0 W/m² | - |
| 1778031787 | 27.22° C | 32% | 970 hPa | - | - | 0 W/m² | - |
| 1778029963 | 27.22° C | 32% | 970 hPa | - | - | 0 W/m² | - |
| 1778028139 | 27.22° C | 32% | 970 hPa | - | - | 0 W/m² | - |
| 1778026315 | 27.22° C | 32% | 970 hPa | - | - | 0 W/m² | - |
* Rain since midnight (hover to see other rain measurements)
** Current wind speed in m/s (hover to see current wind gust speed)